Terminal Aerodrome Forecast
Issued by NWS

Home | Current Version | Previous Version | Text Only | Print | Product List | Glossary On
Versions: 1 2 3 4 5 6 7 8 9 10 11 12 13 14
000
FTUS45 KRIW 250500
TAFPNA
TAF
KPNA 250520Z 2506/2606 VRB05KT P6SM SKC
     FM251500 14006KT P6SM SKC
     FM252100 20008KT P6SM SKC
     FM260300 VRB05KT P6SM SCT100 BKN200
      AMD LTD TO CLD VIS AND WIND=

USA.gov is the U.S. government's official web portal to all federal, state and local government web resources and services.